• In Hungary
  • List of Countries
  • For 7 days
  • Water Temperature
  • Satellite Maps
  • Weather Map
  • News
  • Weather Widgets
  • user-avatar
    Login

    Hourly Weather Steinkjer

    Today, 22 July, Sunday

    Time Temperature Precipitation Wind Pressure Humidity
    00:00 +14°C° 0 mm 1 mps 749 mmHg 95%
    01:00 +14°C° 0 mm 1 mps 749 mmHg 95%
    02:00 +13°C° 0 mm 1 mps 749 mmHg 96%
    03:00 +13°C° 0 mm 1 mps 749 mmHg 96%
    04:00 +13°C° 0 mm 1 mps 749 mmHg 96%
    05:00 +14°C° 0 mm 1 mps 749 mmHg 90%
    06:00 +16°C° 0 mm 1 mps 748 mmHg 83%
    07:00 +18°C° 0 mm 1 mps 748 mmHg 77%
    08:00 +19°C° 0 mm 1 mps 748 mmHg 69%
    09:00 +21°C° 0 mm 1 mps 748 mmHg 62%
    10:00 +22°C° 0 mm 1 mps 748 mmHg 54%
    11:00 +23°C° 0 mm 1 mps 748 mmHg 52%
    12:00 +24°C° 0 mm 2 mps 748 mmHg 50%
    13:00 +24°C° 0 mm 2 mps 747 mmHg 49%
    14:00 +24°C° 0 mm 2 mps 747 mmHg 49%
    15:00 +24°C° 0 mm 2 mps 747 mmHg 50%
    16:00 +24°C° 0 mm 2 mps 747 mmHg 51%
    17:00 +24°C° 0 mm 2 mps 747 mmHg 54%
    18:00 +23°C° 0 mm 2 mps 747 mmHg 57%
    19:00 +21°C° 0 mm 2 mps 747 mmHg 61%
    20:00 +20°C° 0 mm 2 mps 747 mmHg 67%
    21:00 +19°C° 0 mm 1 mps 748 mmHg 74%
    22:00 +16°C° 0 mm 1 mps 748 mmHg 81%
    23:00 +16°C° 0.2 mm 1 mps 748 mmHg 84%

    Tomorrow, 23 July, Monday

    Time Temperature Precipitation Wind Pressure Humidity
    00:00 +15°C° 0.2 mm 1 mps 748 mmHg 86%
    01:00 +15°C° 0.2 mm 2 mps 748 mmHg 89%
    02:00 +15°C° 0.7 mm 2 mps 748 mmHg 91%
    03:00 +15°C° 0.7 mm 2 mps 749 mmHg 92%
    04:00 +15°C° 0.7 mm 2 mps 749 mmHg 94%
    05:00 +15°C° 0.4 mm 2 mps 749 mmHg 95%
    06:00 +15°C° 0.4 mm 2 mps 750 mmHg 95%
    07:00 +15°C° 0.4 mm 2 mps 750 mmHg 96%
    08:00 +15°C° 0.3 mm 2 mps 751 mmHg 95%
    09:00 +15°C° 0.3 mm 2 mps 751 mmHg 94%
    10:00 +15°C° 0.3 mm 1 mps 752 mmHg 93%
    11:00 +15°C° 0.1 mm 1 mps 752 mmHg 91%
    12:00 +16°C° 0.1 mm 1 mps 752 mmHg 89%
    13:00 +16°C° 0.1 mm 1 mps 752 mmHg 88%
    14:00 +16°C° 0 mm 1 mps 752 mmHg 83%
    15:00 +18°C° 0 mm 1 mps 752 mmHg 78%
    16:00 +19°C° 0 mm 1 mps 752 mmHg 72%
    17:00 +19°C° 0 mm 1 mps 752 mmHg 71%
    18:00 +19°C° 0 mm 1 mps 752 mmHg 70%
    19:00 +19°C° 0 mm 1 mps 752 mmHg 69%
    20:00 +18°C° 0 mm 1 mps 752 mmHg 75%
    21:00 +15°C° 0 mm 1 mps 752 mmHg 81%
    22:00 +14°C° 0 mm 1 mps 752 mmHg 87%
    23:00 +14°C° 0 mm 1 mps 752 mmHg 88%

    Day after tomorrow, 24 July, Tuesday

    Time Temperature Precipitation Wind Pressure Humidity
    00:00 +14°C° 0 mm 1 mps 752 mmHg 88%
    01:00 +13°C° 0 mm 1 mps 751 mmHg 89%
    02:00 +13°C° 0.1 mm 1 mps 751 mmHg 88%
    03:00 +14°C° 0.1 mm 1 mps 751 mmHg 88%
    04:00 +14°C° 0.1 mm 1 mps 751 mmHg 88%
    05:00 +15°C° 0 mm 1 mps 751 mmHg 83%
    06:00 +18°C° 0 mm 1 mps 751 mmHg 78%
    07:00 +19°C° 0 mm 1 mps 750 mmHg 73%
    08:00 +21°C° 0 mm 1 mps 750 mmHg 68%
    09:00 +23°C° 0 mm 1 mps 750 mmHg 63%
    10:00 +25°C° 0 mm 2 mps 750 mmHg 58%
    11:00 +25°C° 0.3 mm 2 mps 750 mmHg 57%
    12:00 +26°C° 0.3 mm 3 mps 750 mmHg 57%
    13:00 +26°C° 0.3 mm 3 mps 750 mmHg 56%
    14:00 +26°C° 0.4 mm 3 mps 750 mmHg 57%
    15:00 +26°C° 0.4 mm 3 mps 750 mmHg 58%
    16:00 +26°C° 0.4 mm 3 mps 750 mmHg 59%
    17:00 +25°C° 0.3 mm 3 mps 750 mmHg 62%
    18:00 +25°C° 0.3 mm 2 mps 750 mmHg 65%
    19:00 +24°C° 0.3 mm 2 mps 749 mmHg 68%
    20:00 +21°C° 0.7 mm 2 mps 749 mmHg 75%
    21:00 +19°C° 0.7 mm 2 mps 749 mmHg 82%
    22:00 +19°C° 0.7 mm 1 mps 749 mmHg 90%
    23:00 +17°C° 0.4 mm 2 mps 750 mmHg 91%

    25 July, Wednesday

    Time Temperature Precipitation Wind Pressure Humidity
    00:00 +17°C° 0.4 mm 2 mps 750 mmHg 93%
    01:00 +16°C° 0.4 mm 2 mps 750 mmHg 95%
    02:00 +16°C° 0.4 mm 2 mps 751 mmHg 96%
    03:00 +16°C° 0.4 mm 2 mps 751 mmHg 96%
    04:00 +15°C° 0.4 mm 2 mps 752 mmHg 97%
    05:00 +15°C° 2.1 mm 2 mps 752 mmHg 97%
    06:00 +15°C° 2.1 mm 2 mps 753 mmHg 97%
    07:00 +15°C° 2.1 mm 2 mps 753 mmHg 96%
    08:00 +15°C° 0.2 mm 2 mps 754 mmHg 94%
    09:00 +15°C° 0.2 mm 2 mps 755 mmHg 92%
    10:00 +15°C° 0.2 mm 2 mps 755 mmHg 91%
    11:00 +16°C° 0 mm 2 mps 756 mmHg 84%
    12:00 +17°C° 0 mm 2 mps 756 mmHg 77%
    13:00 +18°C° 0 mm 2 mps 756 mmHg 70%
    14:00 +18°C° 0 mm 2 mps 757 mmHg 66%
    15:00 +19°C° 0 mm 2 mps 757 mmHg 63%
    16:00 +19°C° 0 mm 2 mps 757 mmHg 60%
    17:00 +19°C° 0 mm 2 mps 757 mmHg 61%
    18:00 +18°C° 0 mm 2 mps 757 mmHg 62%
    19:00 +18°C° 0 mm 2 mps 757 mmHg 64%
    20:00 +17°C° 0 mm 2 mps 757 mmHg 69%
    21:00 +15°C° 0 mm 2 mps 758 mmHg 75%
    22:00 +14°C° 0 mm 2 mps 758 mmHg 80%
    23:00 +13°C° 0 mm 2 mps 758 mmHg 81%

    26 July, Thursday

    Time Temperature Precipitation Wind Pressure Humidity
    00:00 +13°C° 0 mm 2 mps 758 mmHg 82%
    01:00 +13°C° 0 mm 2 mps 758 mmHg 83%
    02:00 +13°C° 0 mm 2 mps 757 mmHg 81%
    03:00 +14°C° 0 mm 2 mps 757 mmHg 79%
    04:00 +14°C° 0 mm 2 mps 757 mmHg 76%
    05:00 +15°C° 0 mm 2 mps 757 mmHg 72%
    06:00 +17°C° 0 mm 2 mps 757 mmHg 68%
    07:00 +18°C° 0 mm 2 mps 757 mmHg 63%
    08:00 +20°C° 0 mm 2 mps 757 mmHg 60%
    09:00 +22°C° 0 mm 3 mps 757 mmHg 56%
    10:00 +25°C° 0 mm 3 mps 756 mmHg 53%
    11:00 +26°C° 0 mm 3 mps 756 mmHg 51%
    12:00 +27°C° 0 mm 3 mps 756 mmHg 50%
    13:00 +28°C° 0 mm 3 mps 756 mmHg 48%
    14:00 +28°C° 0.1 mm 3 mps 757 mmHg 50%
    15:00 +27°C° 0.1 mm 3 mps 757 mmHg 52%
    16:00 +27°C° 0.1 mm 3 mps 757 mmHg 54%
    17:00 +26°C° 0 mm 3 mps 757 mmHg 57%
    18:00 +25°C° 0 mm 2 mps 758 mmHg 60%
    19:00 +24°C° 0 mm 2 mps 758 mmHg 64%
    20:00 +22°C° 0 mm 1 mps 758 mmHg 70%
    21:00 +20°C° 0 mm 1 mps 759 mmHg 77%
    22:00 +16°C° 0 mm 1 mps 759 mmHg 83%
    23:00 +16°C° 0 mm 1 mps 759 mmHg 83%

    27 July, Friday

    Time Temperature Precipitation Wind Pressure Humidity
    00:00 +16°C° 0 mm 1 mps 759 mmHg 83%
    01:00 +16°C° 0 mm 1 mps 759 mmHg 83%
    02:00 +16°C° 0 mm 1 mps 759 mmHg 83%
    03:00 +16°C° 0 mm 1 mps 759 mmHg 83%
    04:00 +16°C° 0 mm 1 mps 759 mmHg 83%
    05:00 +19°C° 0 mm 1 mps 759 mmHg 78%
    06:00 +21°C° 0 mm 1 mps 759 mmHg 73%
    07:00 +23°C° 0 mm 2 mps 759 mmHg 68%
    08:00 +25°C° 0 mm 2 mps 759 mmHg 63%
    09:00 +27°C° 0 mm 3 mps 759 mmHg 58%
    10:00 +29°C° 0 mm 3 mps 758 mmHg 54%
    11:00 +30°C° 0 mm 4 mps 758 mmHg 49%
    12:00 +32°C° 0 mm 4 mps 758 mmHg 44%
    13:00 +33°C° 0 mm 4 mps 758 mmHg 39%
    14:00 +33°C° 0 mm 4 mps 758 mmHg 39%
    15:00 +34°C° 0 mm 4 mps 757 mmHg 39%
    16:00 +34°C° 0 mm 4 mps 757 mmHg 40%
    17:00 +33°C° 0 mm 4 mps 757 mmHg 44%
    18:00 +32°C° 0 mm 4 mps 757 mmHg 48%
    19:00 +30°C° 0 mm 4 mps 757 mmHg 52%
    20:00 +29°C° 0 mm 4 mps 757 mmHg 54%
    21:00 +27°C° 0 mm 4 mps 757 mmHg 57%
    22:00 +26°C° 0 mm 5 mps 757 mmHg 60%
    23:00 +25°C° 0 mm 4 mps 757 mmHg 63%
    Show more